Temp_Advection
nan nan nan nan nan nan nan nan nan nan nan nan nan nan nan nan nan nan nan nan nan nan nan nan nan nan nan nan nan nan nan nan nan nan nan nan nan nan
nan -2 -2 0 -0 -1 -1 0 1 -0 0 -0 -0 -2 -1 0 0 0 0 0 1 1 0 0 0 -0 -0 0 0 0 0 0 0 0 0 0 0 nan
nan -2 -2 -0 -1 -0 -0 0 -0 -0 -0 -0 -0 -0 -0 -0 0 0 0 0 0 0 0 0 -0 -0 -0 0 0 0 0 0 0 0 0 0 0 nan
nan -3 -3 -2 -0 0 -1 -0 -0 -0 -0 -0 1 0 -1 -0 0 0 0 0 -0 0 0 0 -0 0 0 0 0 0 0 0 0 0 0 0 0 nan
nan -4 -3 -2 -3 -1 -1 -1 -1 0 1 -0 0 -0 -0 -0 0 0 0 0 -0 -0 1 1 0 0 0 0 0 0 0 1 0 0 0 0 0 nan
nan -2 -3 -4 -4 -3 -1 0 -0 -0 -1 0 1 0 -0 0 0 1 0 -0 -0 0 0 -0 0 0 0 0 -0 0 1 1 0 0 0 1 0 nan
nan -4 -3 -4 -3 -1 -2 -3 -1 -1 0 1 0 0 1 -0 -1 1 -0 -0 1 0 -0 -0 1 1 0 -0 0 1 1 0 -0 0 1 0 -0 nan
nan -3 -4 -5 -5 -2 -4 -2 -0 -0 -1 0 0 -1 -1 -3 0 0 -0 1 -0 -1 -1 1 1 -1 -1 0 -0 0 1 0 0 1 0 -0 -0 nan
nan -1 -3 -4 -4 -6 -3 -0 -0 -1 -1 -1 -1 -0 -2 -2 2 1 -2 -2 -1 0 0 2 -0 -1 -1 -0 0 1 1 -0 -0 0 -0 0 0 nan
nan -0 -1 -2 -3 -2 -2 -5 -4 -2 -2 -1 -1 -1 -1 0 2 -2 -1 3 3 1 0 0 -0 -0 0 0 1 1 0 0 0 0 1 1 0 nan
nan -0 -0 -2 -3 -1 -2 -4 -2 -7 -4 -1 -1 -0 0 1 1 1 2 1 1 0 0 1 0 -1 1 0 0 0 1 1 0 1 1 0 0 nan
nan -1 -1 -1 -0 -1 -2 -3 -7 -6 -2 -2 -1 0 -0 0 -0 0 -0 -1 1 1 -0 -0 -1 -0 1 -0 0 1 1 1 0 0 0 1 1 nan
nan -2 -1 -1 -1 -1 -2 -4 -9 -3 -2 -2 -2 -1 1 0 -0 1 -0 0 1 -0 -1 -1 -1 -0 -0 0 0 1 1 1 1 1 0 0 1 nan
nan -2 -2 -1 -0 -1 -2 -7 -4 -2 -3 -2 -1 -0 0 -1 -0 1 0 0 -0 0 0 -1 -0 -0 0 0 0 0 1 1 1 0 0 1 1 nan
nan -1 -2 -2 -2 -1 -1 -2 -2 -4 -6 -4 -1 -1 -1 -1 0 0 0 1 1 1 0 -1 -0 0 1 1 1 1 1 0 1 1 1 1 1 nan
nan -1 -2 -2 -2 -1 -1 -2 -3 -5 -7 -4 -2 0 -0 -0 -0 1 1 1 1 0 0 1 1 1 1 1 1 1 1 1 1 1 1 1 1 nan
nan -2 -2 -2 -3 -2 -2 -3 -3 -5 -7 -4 -1 -0 -0 -1 1 1 0 0 1 1 1 1 1 1 -0 0 1 1 1 1 1 1 1 1 1 nan
nan -2 -2 -3 -3 -1 -2 -3 -4 -4 -5 -2 -2 -0 -0 0 2 0 -0 0 1 1 -0 0 0 -0 1 1 1 2 1 1 1 1 1 1 1 nan
nan -2 -2 -5 -3 -1 -1 -4 -3 -4 -2 -3 -2 0 0 1 1 -0 0 1 1 1 -0 1 0 0 0 0 1 1 0 1 1 1 1 1 2 nan
nan -1 -1 -1 -1 -1 -2 -3 -4 -4 -2 -3 -1 1 1 1 -0 0 0 1 2 0 -1 0 0 -0 0 -0 1 1 2 2 2 1 1 2 2 nan
nan -1 -1 1 -0 -1 -3 -3 -5 -2 -1 -2 -1 0 -0 -1 -0 0 -0 2 2 -1 -0 1 1 1 1 1 2 2 3 2 2 2 3 2 1 nan
nan -0 -0 1 2 -0 -1 -3 -2 -2 -1 -1 -1 -1 -1 -0 0 -1 1 3 1 1 3 3 4 4 2 2 2 3 2 2 2 2 2 2 1 nan
nan nan nan nan nan nan nan nan nan nan nan nan nan nan nan nan nan nan nan nan nan nan nan nan nan nan nan nan nan nan nan nan nan nan nan nan nan nan
Wind_Speed
38 37 38 29 34 46 50 42 40 30 32 31 27 34 44 50 47 47 44 43 40 40 38 34 35 31 30 30 28 27 27 28 29 27 26 28 25 25
39 39 39 38 27 40 51 49 44 42 33 31 32 32 34 41 46 45 46 45 44 41 40 39 37 36 34 33 33 30 29 29 29 32 29 32 25 26
39 42 43 40 40 25 46 49 49 44 42 36 33 34 36 36 35 43 43 45 48 46 44 42 41 38 37 35 35 34 33 31 30 30 26 26 28 28
39 39 44 43 46 40 25 50 50 49 44 41 38 34 39 35 34 35 40 43 44 47 45 43 43 42 40 40 38 37 36 35 33 33 30 29 29 31
38 39 42 42 46 46 40 32 52 57 55 43 43 41 45 42 38 36 37 38 43 42 47 47 46 44 43 42 40 38 38 39 36 35 33 35 34 35
40 45 43 45 48 48 52 39 43 55 55 51 49 42 47 47 46 44 41 39 38 39 43 48 49 50 48 44 46 43 42 40 39 39 39 38 36 35
40 45 48 49 49 51 49 56 30 54 54 52 51 43 48 43 51 47 48 44 43 43 43 42 47 52 52 49 48 48 47 42 41 40 39 38 35 31
45 43 46 49 52 52 55 56 57 36 56 54 54 52 53 55 56 52 52 48 44 46 43 43 42 49 50 50 51 51 49 44 43 42 41 37 33 30
47 49 47 49 50 52 56 56 60 61 44 55 58 57 54 58 55 57 54 53 52 46 42 44 42 41 44 46 48 49 47 42 39 35 34 32 31 32
48 50 50 52 51 47 48 47 60 62 61 57 60 59 57 55 55 56 56 55 50 42 44 43 43 40 39 41 38 38 38 37 35 34 34 34 34 35
48 49 52 53 56 52 48 54 45 55 61 63 66 64 59 53 52 51 47 47 44 43 45 41 40 37 39 40 37 36 37 37 36 36 36 35 35 35
46 50 50 55 54 52 51 51 53 55 52 60 58 69 66 59 52 51 48 54 51 38 49 48 39 45 40 39 39 38 39 40 39 39 39 38 37 35
46 48 50 50 54 57 56 55 60 62 46 53 59 67 68 61 57 54 54 54 53 47 39 44 50 47 41 24 40 41 42 42 40 38 36 35 34 33
51 52 56 53 53 54 56 64 66 57 49 52 53 56 59 63 60 58 56 55 53 51 46 45 48 53 48 40 32 33 41 43 40 38 36 34 33 32
52 55 54 54 53 54 55 58 57 63 66 49 55 58 60 64 59 59 54 55 53 49 44 43 45 44 46 46 45 45 37 35 35 35 35 33 31 30
51 52 55 56 50 54 54 54 57 58 71 56 55 62 58 58 54 52 58 59 55 53 47 47 41 42 44 48 47 47 46 43 36 34 33 31 30 29
43 47 45 47 53 53 55 54 51 56 69 63 57 51 56 59 53 51 56 57 60 58 54 54 52 44 44 44 45 47 48 44 35 30 30 29 29 29
42 46 49 47 49 54 55 54 53 51 69 61 63 59 60 60 54 55 55 58 59 59 58 60 54 47 43 42 41 46 39 33 31 30 28 28 29 29
35 33 49 50 50 53 53 60 45 55 64 75 53 62 58 56 54 56 56 58 56 59 61 59 59 55 49 41 39 39 35 35 33 31 29 30 30 28
44 32 21 40 48 49 50 51 59 50 57 63 53 50 56 58 56 55 57 58 58 57 59 59 61 58 57 51 42 36 35 32 35 33 31 29 26 24
46 41 25 5 27 43 52 42 62 54 56 65 55 52 60 58 59 58 58 60 60 61 58 59 58 56 54 44 39 37 34 32 28 30 33 29 27 23
47 42 37 23 12 14 29 45 43 57 64 60 63 59 61 65 63 57 58 62 62 61 57 56 57 58 53 43 41 39 33 30 27 25 25 25 26 21
50 46 41 40 23 12 14 33 32 56 64 61 65 69 67 62 59 57 58 57 57 54 52 49 50 50 47 41 40 38 36 33 32 30 25 19 16 13
Wind_Direction
259 254 249 241 245 241 236 223 220 222 226 224 227 233 236 235 233 234 235 234 235 232 233 228 230 230 233 234 235 235 240 244 243 247 247 249 247 251
262 259 254 244 246 237 239 232 226 226 231 231 231 236 241 233 234 235 236 239 235 233 233 231 229 231 233 237 239 242 243 248 251 250 250 258 259 255
261 260 255 251 242 237 234 228 224 225 230 233 238 246 244 239 239 236 236 236 231 234 235 233 232 232 232 237 241 241 244 248 249 251 252 251 253 257
263 259 256 253 248 243 243 231 228 231 225 230 229 231 240 241 239 238 235 236 234 235 237 234 233 234 236 236 239 243 244 246 248 250 252 253 257 261
265 261 258 255 253 246 241 240 237 239 231 226 228 229 239 242 240 239 235 235 235 239 234 236 237 237 239 238 237 241 244 246 249 253 250 254 255 259
264 262 260 255 252 249 243 234 240 234 232 238 230 226 231 237 238 233 232 234 235 235 237 241 239 239 237 241 240 240 245 249 251 248 249 252 256 259
267 262 261 257 252 249 248 241 242 230 228 222 225 221 225 219 230 229 233 237 239 241 242 247 241 233 235 238 240 239 244 249 248 252 250 249 252 251
271 268 262 259 254 249 245 239 236 237 226 226 224 222 226 235 238 231 233 230 232 236 241 245 241 234 234 238 238 242 242 248 248 248 247 248 247 249
269 267 264 260 258 253 247 244 238 238 232 226 225 227 230 239 240 235 234 234 237 240 240 241 238 233 235 239 242 242 244 244 245 242 240 242 245 248
271 268 262 260 256 253 250 249 243 239 236 230 232 238 237 243 238 236 238 241 233 239 240 238 236 235 237 239 239 234 235 235 233 233 237 241 245 251
271 267 264 258 256 251 248 247 242 247 239 236 231 240 240 238 232 232 220 221 224 224 229 229 228 237 238 238 237 232 231 231 235 239 243 246 250 253
273 270 262 255 252 249 247 242 244 234 237 238 239 233 238 240 233 238 231 230 226 220 228 224 220 229 232 237 236 233 232 234 236 239 244 246 250 251
271 268 263 257 250 246 242 241 237 230 236 234 234 234 230 225 230 236 236 234 230 222 225 230 226 226 228 231 232 232 232 235 235 237 242 244 247 248
272 268 262 258 252 245 241 243 238 232 226 229 225 226 223 221 228 226 229 233 236 238 228 230 231 226 227 224 226 230 232 232 235 238 241 239 243 244
273 268 260 253 252 245 239 241 242 234 229 235 219 218 224 227 232 229 235 233 232 229 228 232 234 230 228 232 233 233 234 234 233 233 234 235 236 240
278 268 255 248 248 242 239 239 237 234 225 230 212 212 218 220 224 231 229 231 225 226 227 231 225 225 229 232 233 237 239 237 225 222 225 231 235 234
281 265 252 241 240 238 231 232 230 228 223 222 221 213 213 223 224 226 226 227 223 221 221 224 230 231 230 232 231 240 237 222 214 218 222 223 225 226
291 257 241 238 233 225 222 222 223 221 218 213 213 205 205 210 217 217 221 225 223 218 222 225 221 213 218 221 232 225 208 211 218 223 224 219 222 225
344 252 230 227 223 219 217 217 223 216 215 217 207 200 207 214 213 218 219 223 224 221 224 226 218 218 209 203 207 209 213 210 212 213 214 215 216 216
1 13 221 218 212 213 215 216 215 213 210 213 215 198 204 211 211 218 220 224 220 217 220 223 218 220 217 204 197 201 206 213 211 208 204 202 205 211
4 10 20 129 199 213 215 215 215 214 208 209 210 204 207 211 214 219 221 222 219 220 221 222 219 216 206 209 208 197 196 199 208 210 203 202 200 197
7 10 16 39 117 180 211 228 217 219 199 201 203 206 207 214 215 216 218 217 218 220 221 219 213 207 201 202 199 191 180 183 184 188 194 199 189 187
8 13 21 32 68 111 169 195 210 188 193 191 199 206 209 209 213 217 215 215 212 210 212 205 198 197 195 192 189 173 168 168 168 168 167 171 174 175
Height
1460 1462 1464 1463 1467 1467 1472 1477 1480 1485 1486 1488 1493 1492 1496 1501 1506 1511 1516 1520 1525 1529 1533 1537 1540 1544 1547 1550 1552 1555 1558 1560 1561 1562 1563 1564 1566 1568
1450 1452 1453 1457 1455 1459 1460 1465 1472 1474 1477 1480 1482 1485 1489 1492 1497 1502 1507 1510 1515 1520 1524 1528 1532 1537 1540 1543 1546 1549 1551 1554 1556 1557 1558 1558 1560 1561
1440 1440 1442 1446 1449 1446 1449 1453 1460 1464 1466 1471 1475 1476 1480 1484 1488 1491 1497 1500 1504 1510 1514 1518 1523 1528 1532 1535 1538 1541 1544 1547 1549 1551 1551 1553 1554 1555
1429 1430 1430 1434 1435 1437 1438 1440 1446 1452 1457 1460 1466 1466 1470 1474 1479 1482 1487 1490 1494 1500 1505 1509 1513 1518 1523 1527 1530 1533 1536 1539 1541 1543 1545 1547 1547 1548
1417 1417 1419 1422 1423 1426 1429 1432 1434 1440 1445 1450 1455 1459 1460 1466 1470 1474 1477 1480 1485 1489 1494 1499 1503 1509 1513 1518 1521 1524 1527 1529 1532 1535 1537 1539 1540 1542
1407 1406 1407 1409 1411 1415 1419 1421 1427 1429 1432 1435 1444 1448 1450 1454 1460 1464 1467 1471 1475 1479 1482 1487 1493 1497 1502 1507 1510 1513 1518 1520 1523 1525 1527 1529 1530 1533
1394 1394 1394 1395 1398 1401 1406 1409 1411 1415 1420 1422 1430 1435 1437 1441 1445 1452 1455 1461 1465 1469 1472 1474 1479 1483 1488 1494 1498 1503 1507 1511 1514 1515 1517 1519 1522 1524
1382 1381 1380 1381 1381 1386 1389 1393 1399 1401 1406 1409 1416 1418 1423 1429 1436 1439 1444 1448 1451 1455 1461 1462 1466 1470 1477 1482 1486 1490 1496 1501 1504 1506 1508 1512 1514 1516
1371 1369 1368 1367 1369 1370 1374 1379 1384 1388 1392 1396 1399 1403 1410 1413 1422 1426 1427 1436 1438 1443 1452 1453 1456 1461 1466 1470 1474 1480 1486 1490 1494 1496 1500 1503 1506 1508
1357 1356 1355 1353 1354 1359 1363 1366 1369 1373 1377 1383 1385 1391 1397 1405 1408 1412 1415 1422 1430 1435 1440 1442 1448 1451 1458 1460 1464 1469 1475 1481 1484 1487 1491 1494 1497 1499
1342 1340 1340 1338 1337 1344 1350 1350 1355 1357 1361 1369 1375 1380 1388 1393 1398 1404 1406 1413 1417 1419 1424 1433 1436 1446 1449 1450 1456 1462 1466 1472 1476 1480 1482 1485 1488 1489
1328 1324 1323 1322 1322 1329 1333 1336 1338 1337 1348 1353 1360 1367 1374 1379 1385 1388 1396 1398 1405 1410 1410 1419 1425 1434 1438 1441 1448 1452 1456 1462 1466 1470 1473 1475 1478 1479
1313 1308 1305 1304 1306 1311 1316 1320 1316 1328 1338 1342 1346 1352 1357 1362 1369 1375 1382 1387 1391 1393 1398 1411 1414 1422 1429 1430 1437 1442 1446 1452 1456 1460 1464 1466 1469 1471
1296 1292 1288 1288 1290 1293 1298 1296 1302 1317 1325 1328 1333 1336 1341 1345 1353 1361 1370 1375 1380 1385 1390 1395 1400 1408 1416 1422 1428 1431 1436 1441 1445 1449 1453 1456 1459 1462
1278 1271 1270 1270 1272 1276 1278 1281 1289 1300 1304 1310 1313 1320 1325 1333 1343 1351 1359 1366 1370 1375 1381 1387 1391 1398 1405 1407 1415 1422 1427 1431 1434 1438 1442 1447 1450 1452
1255 1249 1246 1249 1253 1255 1262 1266 1273 1278 1285 1291 1293 1304 1314 1321 1327 1335 1343 1352 1358 1363 1370 1378 1384 1388 1393 1398 1404 1411 1416 1421 1423 1429 1434 1438 1441 1444
1234 1227 1225 1227 1230 1235 1239 1246 1252 1259 1267 1275 1282 1289 1295 1304 1313 1321 1331 1339 1345 1350 1357 1366 1372 1377 1383 1389 1394 1398 1404 1408 1414 1420 1425 1428 1432 1436
1208 1200 1199 1202 1206 1211 1218 1226 1232 1239 1247 1260 1267 1272 1280 1287 1299 1309 1317 1325 1333 1336 1344 1351 1359 1366 1372 1377 1382 1387 1393 1398 1405 1410 1415 1417 1422 1428
1185 1169 1172 1179 1185 1191 1200 1207 1214 1223 1232 1241 1245 1251 1263 1274 1285 1294 1304 1314 1321 1325 1331 1339 1345 1353 1357 1364 1375 1380 1386 1389 1396 1403 1407 1409 1414 1419
1181 1166 1163 1167 1170 1178 1186 1193 1202 1211 1219 1230 1234 1235 1251 1261 1272 1283 1293 1299 1307 1313 1319 1329 1332 1337 1343 1349 1362 1370 1377 1383 1389 1393 1397 1403 1409 1412
1185 1173 1165 1160 1161 1167 1173 1178 1187 1195 1203 1214 1220 1226 1240 1249 1259 1269 1278 1288 1295 1300 1307 1314 1323 1331 1336 1346 1354 1362 1370 1376 1383 1386 1390 1396 1401 1405
1193 1182 1172 1161 1156 1157 1163 1168 1174 1184 1190 1199 1211 1220 1229 1240 1250 1254 1264 1276 1282 1290 1298 1305 1311 1320 1326 1333 1343 1353 1361 1368 1376 1383 1387 1391 1393 1398
1201 1191 1180 1165 1154 1152 1155 1159 1166 1164 1179 1188 1198 1209 1220 1230 1239 1247 1255 1264 1272 1279 1287 1295 1303 1310 1318 1325 1337 1345 1354 1362 1367 1376 1383 1388 1392 1398